Meteo Giornale » Osservazioni meteo Francia » Chambery-Aix-Les-Bains

ore: 04:30 - Osservazioni Meteo Chambery-Aix-Les-Bains
Lat. 45° 39' N Lon. 5° 53' E Alt. 235 metri s.l.m.

coperto_pioggia Europe/Paris

14 °C

Pioggia Foschia

Temp. 24 Ore

13 °C

25 °C

Nord

5.5 Km/h

Dew point 13 °C

Umidità 93 %

Visibilità  5 Km

Il sole sorge alle ore 07:18

Il sole tramonta alle ore 19:41

Data e Ora Cielo e Fenomeni T °C DP °C Um. % Pres. hPa Vis. km Vento km/h
Oggi h: 04:30 coperto_pioggia Pioggia Foschia 14 13 93 1016 5 N 5.5
Oggi h: 04:00 coperto_pioggia Pioggia 14 13 93 1016 7 N 5.5
Oggi h: 03:30 coperto_pioggia Pioggia 15 14 93 1015 7 E/SE 11.1
Oggi h: 03:00 coperto_pioggia Pioggia Foschia 15 14 93 1015 5 E/SE 11.1
Oggi h: 02:30 coperto_pioggia Pioggia Debole 16 13 82 1014 10 S/SE 16.7
Oggi h: 02:00 coperto Coperto 18 12 67 1014 10 N 13
Oggi h: 01:30 coperto Coperto 18 13 72 1014 10 E 14.8
Oggi h: 01:00 nuvoloso_temporali Temporale nelle Vicinanze 18 13 72 1012 10 N 16.7
Oggi h: 00:30 molto_nuvoloso Molto Nuvoloso 17 15 88 1012 10 N 5.5
Oggi h: 00:00 molto_nuvoloso Molto Nuvoloso 16 15 93 1013 10 N 5.5
Ieri h: 23:30 molto_nuvoloso Molto Nuvoloso 16 15 93 1012 10 N 3.7
Ieri h: 23:00 molto_nuvoloso Molto Nuvoloso 16 15 93 1012 10 N 3.7
Ieri h: 22:30 sereno Sereno 16 15 93 1012 10 N 3.7
Ieri h: 22:00 sereno Sereno 16 15 93 1012 10 N 0
Ieri h: 21:30 sereno Sereno 16 15 93 1012 10 N 3.7
Ieri h: 21:00 sereno Sereno 16 15 93 1012 10 N 5.5
Ieri h: 20:00 sereno Sereno 18 16 88 1012 4 N 1.8
Ieri h: 19:30 poco_nuvoloso Poco Nuvoloso 20 16 77 1012 10 N 1.8
Ieri h: 19:00 sereno Sereno 21 16 73 1012 10 N 5.5
Ieri h: 18:30 sereno Sereno 22 16 68 1012 10 O/NO 7.4
Ieri h: 18:00 sereno Sereno 23 16 64 1012 10 N 5.5
Ieri h: 17:30 sereno Sereno 24 16 60 1012 10 N 9.3
Ieri h: 17:00 sereno Sereno 24 16 60 1012 10 N 7.4
Ieri h: 16:30 sereno Sereno 24 15 57 1013 10 N/NO 7.4
Ieri h: 16:00 sereno Sereno 25 15 53 1013 10 O/NO 7.4
Ieri h: 15:30 sereno Sereno 24 16 60 1013 10 N 9.3
Ieri h: 14:30 sereno Sereno 24 16 60 1014 10 N/NO 7.4
Ieri h: 13:30 nebbia Cielo Invisibile 23 16 64 1014 10 N 5.5
Ieri h: 12:30 nebbia Cielo Invisibile 22 14 60 1015 10 N/NO 7.4
Ieri h: 11:30 sereno Sereno 21 15 68 1015 10 N/NO 7.4
Ieri h: 11:00 sereno Sereno 19 15 77 1015 10 N 3.7
Ieri h: 10:30 poco_nuvoloso Poco Nuvoloso 18 15 82 1015 10 N 5.5
Ieri h: 09:30 poco_nuvoloso Poco Nuvoloso 16 16 100 1015 10 N 0
Ieri h: 09:00 poco_nuvoloso Poco Nuvoloso 15 15 100 1015 10 N 3.7
Ieri h: 08:30 sereno Sereno 14 14 100 1015 8 N 3.7
Ieri h: 08:00 poco_nuvoloso Poco Nuvoloso 13 13 100 1015 10 N 3.7
Ieri h: 07:30 nebbia Banco di Nebbia 13 13 100 1015 0.8 N 0
Ieri h: 07:00 molto_nuvoloso Molto Nuvoloso 13 13 100 1015 6 N 3.7
Ieri h: 06:30 foschia Foschia 13 13 100 1015 2 N 1.8
Ieri h: 06:00 molto_nuvoloso Molto Nuvoloso 13 13 100 1015 10 N 3.7